Location: St. Louis
(38.6270°N, 90.1994°W)
Time: 11:57:19
(UTC-06:00)

A-11 Canister half - Pass Details

Date: 10 December 2021
Orbit: 1524 x 1684 km, 47.3° (Epoch: 25 January)

Event Time Altitude Azimuth Distance (km) Brightness Sun altitude
Rises 20:23:24 0° 173° (S) 4,854 - -42.9°
Reaches altitude 10° 20:28:30 10° 151° (SSE) 3,900 - -43.9°
Maximum altitude 20:33:20 15° 122° (ESE) 3,557 - -44.8°
Drops below altitude 10° 20:38:12 10° 92° (E) 3,941 - -45.7°
Sets 20:43:20 0° 71° (ENE) 4,940 - -46.7°
